Regional Weather Roundup
Issued by NWS

Home | Current Version | Previous Version | Graphics & Text | Print | Product List | Glossary On
Versions: 1 2 3 4 5 6 7 8 9 10 11 12 13 14 15 16 17 18 19 20 21 22 23 24 25 26 27 28 29 30 31 32 33 34 35 36 37 38 39 40 41 42 43 44 45 46 47 48 49 50
000
ASUS45 KBOU 272307
RWRCO

WEATHER ROUNDUP FOR COLORADO
NATIONAL WEATHER SERVICE DENVER/BOULDER CO
500 PM MDT THU AUG 27 2015

NOTE: "FAIR" INDICATES FEW OR NO CLOUDS BELOW 12000 FEET WITH NO
SIGNIFICANT WEATHER AND/OR OBSTRUCTIONS TO VISIBILITY.

COZ001>005-013-030-031-280000-
...NORTHWEST COLORADO...

CITY           SKY/WX    TMP DP  RH WIND       PRES   REMARKS
CRAIG          CLOUDY    77  52  41 W10       30.22F
HAYDEN         NOT AVBL
MEEKER         MOSUNNY   75  53  46 VRB6      30.25F
MOUNT WERNER   NOT AVBL
STEAMBOAT SPGS MOSUNNY   66  58  74 E7        30.29F
WALDEN         CLOUDY    61  46  59 N12       30.36S
$$

COZ006>008-011-280000-
...WEST CENTRAL VALLEYS...

CITY           SKY/WX    TMP DP  RH WIND       PRES   REMARKS
GRAND JUNCTION MOSUNNY   83  57  41 SW6       30.14F
MONTROSE       MOSUNNY   79  54  41 W7        30.24F
EAGLE          PTSUNNY   70  54  56 SW7       30.30R
RIFLE          LGT RAIN  64  59  83 N3        30.23F
DELTA          MOSUNNY   85  51  30 W15       30.17F HAZE
NUCLA          MOSUNNY   81  45  28 W9        30.25F
$$

COZ017>023-064>068-280000-
...SOUTHWEST COLORADO...

CITY           SKY/WX    TMP DP  RH WIND       PRES   REMARKS
DURANGO        MOSUNNY   76  52  43 E3        30.26F
CORTEZ         MOSUNNY   78  57  48 W6        30.22F
PAGOSA SPRINGS MOSUNNY   67  52  58 CALM      30.36F
TELLURIDE      PTSUNNY   64  50  59 W6        30.48F
WOLF CREEK PAS FOG       48  48 100 SW13      30.66S THUNDER VSB 3/4
$$

COZ009-010-012-014-032>034-037-058>063-280000-
...CENTRAL COLORADO...

CITY           SKY/WX    TMP DP  RH WIND       PRES   REMARKS
ASPEN          RAIN      63  53  70 NW5       30.37S
BUENA VISTA    CLOUDY    69  46  43 W9        30.33S
COPPER MTN     CLOUDY    52  45  76 W22G31    30.65R
BERTHOUD PASS  HAZE      41  30  65 NW31      30.63F VSB 1/4
COTTONWOOD PAS CLOUDY    63  45  51 NW8       30.47S
GUNNISON       PTSUNNY   72  46  40 SW9       30.36F
KREMMLING      CLOUDY    63  52  67 S12       30.36R
LEADVILLE      PTSUNNY   59  41  51 NW17G24   30.48R
MONARCH PASS   CLOUDY    48  45  87 W21       30.73S
SALIDA         CLOUDY    74  46  37 W14G21    30.36F
SUNLIGHT       CLOUDY    54  52  94 CALM      30.60S FOG
WILKERSON PASS MOSUNNY   55  37  50 NW7       30.58S
$$

COZ069>075-280000-
...SAN LUIS VALLEY/SANGRE DE CRISTO MOUNTAINS...

CITY           SKY/WX    TMP DP  RH WIND       PRES   REMARKS
ALAMOSA        PTSUNNY   74  46  36 NW15G21   30.29F
LA VETA PASS   PTSUNNY   63  43  48 CALM      30.48S
SAGUACHE       PTSUNNY   73  46  38 NW16G28   30.33F
$$

COZ035-036-038>040-280000-
...NORTHERN COLORADO FRONT RANGE...

CITY           SKY/WX    TMP DP  RH WIND       PRES   REMARKS
DENVER INTL AP TSTM      71  57  61 N16       30.14R
DMNS CITY PARK   N/A     73  57  56 NE6G15    30.14S
AURORA         PTSUNNY   74  53  48 N20       30.17R
FRONT RANGE AP CLOUDY    73  50  43 N24G35    30.15R
ERIE MUNI ARPT CLOUDY    73  61  67 NE6       30.13S
BOULDER MUN AP CLOUDY    73  55  53 NW6       30.14S
CENTENNIAL     CLOUDY    71  63  75 N20G26    30.18R
BROOMFIELD     PTSUNNY   72  59  64 N12       30.17S
FORT COLLINS   CLOUDY    75  54  46 NW16      30.13S
LONGMONT       CLOUDY    76  60  58 N5        30.14F
$$

COZ041-046-047-076>085-087-088-280000-
...PIKES PEAK/PALMER DIVIDE AND SOUTHERN FOOTHILLS...

CITY           SKY/WX    TMP DP  RH WIND       PRES   REMARKS
COLO. SPRINGS  PTSUNNY   82  49  31 E9G21     30.15F
A. F. ACADEMY  TSTM      75  50  41 W20G26    30.20R
ELLICOTT       PTSUNNY  N/A N/A N/A NE5       30.13F
FALCON         PTSUNNY   76  46  33 CALM      30.22S
FORT CARSON    PTSUNNY   80  53  39 VRB1      30.11F
LIMON          CLOUDY    81  48  31 N8        30.09F
MONUMENT HILL  CLOUDY    70  46  43 N23G31    30.23S
TRINIDAD       CLOUDY    88  46  23 E7        30.09F
$$

COZ042>045-048>051-090-091-280000-
...NORTHEAST COLORADO...

CITY           SKY/WX    TMP DP  RH WIND       PRES   REMARKS
GREELEY ARPT   CLOUDY    81  55  41 NW14      30.10F
AKRON          MOSUNNY   86  49  27 N22G28    30.03S
BURLINGTON     CLOUDY    90  48  23 NW9       29.98F
WRAY           SUNNY     92  57  30 N13G20    29.93S
STERLING       PTSUNNY   82  59  44 N17G25    29.99R
HOLYOKE        SUNNY     81  59  47 NW9G16    29.96S
FORT MORGAN    CLOUDY    78  51  39 NW26G36   30.07R
$$

COZ086-089-092>099-280000-
...SOUTHEAST COLORADO...

CITY           SKY/WX    TMP DP  RH WIND       PRES   REMARKS
PUEBLO         PTSUNNY   90  48  23 E7        30.01F
LA JUNTA       PTSUNNY   81  55  40 N24G39    30.01R
LAMAR          MOSUNNY   94  52  24 SE6       29.92F
SPRINGFIELD      N/A     92  47  21 CALM      29.98S
$$



USA.gov is the U.S. government's official web portal to all federal, state and local government web resources and services.